| time (UTC) | temp F | wind direction | speed MPH | gust MPH | rain 1hr in | rain 24hr in | rain mn in | humidity % | barometer mb |
| 20260902091523 | 78 | 252 | 4.0 | 9.0 | 0.00 | 0.00 | 0.00 | 75 | 1014.0 |
| 20260902090010 | 78 | 242 | 4.0 | 11.0 | 0.00 | 0.00 | 0.00 | 74 | 1014.2 |
| 20260902084510 | 78 | 229 | 4.0 | 8.0 | 0.00 | 0.00 | 0.00 | 74 | 1014.3 |
| 20260902083009 | 78 | 226 | 3.0 | 8.0 | 0.00 | 0.00 | 0.00 | 73 | 1014.3 |
| 20260902081507 | 78 | 224 | 3.0 | 6.0 | 0.00 | 0.00 | 0.00 | 72 | 1014.5 |
| 20260902080006 | 78 | 201 | 3.0 | 6.0 | 0.00 | 0.00 | 0.00 | 71 | 1014.5 |
| 20260902074505 | 79 | 223 | 2.0 | 5.0 | 0.00 | 0.00 | 0.00 | 71 | 1014.4 |
| 20260902073003 | 79 | 196 | 2.0 | 5.0 | 0.00 | 0.00 | 0.00 | 71 | 1014.5 |
| 20260902071503 | 79 | 248 | 4.0 | 7.0 | 0.00 | 0.00 | 0.00 | 71 | 1014.5 |
| 20260902070059 | 79 | 198 | 4.0 | 7.0 | 0.00 | 0.00 | 0.00 | 72 | 1014.6 |
| 20260902064603 | 79 | 198 | 3.0 | 7.0 | 0.00 | 0.00 | 0.00 | 72 | 1014.7 |
| 20260902063059 | 79 | 222 | 2.0 | 6.0 | 0.00 | 0.00 | 0.00 | 73 | 1014.6 |
| 20260902061608 | 79 | 243 | 2.0 | 6.0 | 0.00 | 0.00 | 0.00 | 73 | 1014.7 |
| 20260902060052 | 80 | 214 | 1.0 | 5.0 | 0.00 | 0.00 | 0.00 | 73 | 1014.7 |
| 20260902054552 | 80 | 199 | 3.0 | 6.0 | 0.00 | 0.00 | 0.00 | 73 | 1014.8 |
| 20260902053051 | 80 | 227 | 2.0 | 6.0 | 0.00 | 0.00 | 0.00 | 72 | 1014.8 |
| 20260902051548 | 81 | 167 | 4.0 | 8.0 | 0.00 | 0.00 | 0.00 | 71 | 1014.8 |
| 20260902050048 | 81 | 139 | 2.0 | 8.0 | 0.00 | 0.00 | 0.00 | 70 | 1014.8 |
| 20260902044545 | 82 | 188 | 4.0 | 7.0 | 0.00 | 0.00 | 0.00 | 68 | 1014.6 |
| 20260902043044 | 82 | 165 | 2.0 | 5.0 | 0.00 | 0.00 | 0.00 | 67 | 1014.6 |
| 20260902041546 | 83 | 160 | 2.0 | 6.0 | 0.00 | 0.00 | 0.00 | 65 | 1014.7 |
| 20260902040044 | 83 | 131 | 4.0 | 8.0 | 0.00 | 0.00 | 0.00 | 64 | 1014.6 |
| 20260902034543 | 84 | 207 | 4.0 | 8.0 | 0.00 | 0.00 | 0.00 | 63 | 1014.4 |
| 20260902033042 | 84 | 160 | 2.0 | 5.0 | 0.00 | 0.00 | 0.00 | 61 | 1014.4 |
| 20260902031541 | 84 | 151 | 3.0 | 6.0 | 0.00 | 0.00 | 0.00 | 61 | 1014.1 |
| 20260902030040 | 84 | 125 | 3.0 | 6.0 | 0.00 | 0.00 | 0.00 | 60 | 1013.9 |
| 20260902024539 | 85 | 95 | 2.0 | 4.0 | 0.00 | 0.00 | 0.00 | 59 | 1013.5 |
| 20260902023040 | 86 | 146 | 4.0 | 8.0 | 0.00 | 0.00 | 0.00 | 57 | 1013.1 |
| 20260902021548 | 86 | 86 | 3.0 | 9.0 | 0.00 | 0.00 | 0.00 | 57 | 1012.9 |
| 20260902020038 | 86 | 112 | 2.0 | 5.0 | 0.00 | 0.00 | 0.00 | 57 | 1012.9 |
| 20260902014543 | 87 | 154 | 3.0 | 6.0 | 0.00 | 0.00 | 0.00 | 56 | 1012.6 |
| 20260902013036 | 88 | 131 | 2.0 | 5.0 | 0.00 | 0.00 | 0.00 | 55 | 1012.6 |
| 20260902011547 | 89 | 145 | 2.0 | 4.0 | 0.00 | 0.00 | 0.00 | 54 | 1012.4 |
| 20260902010105 | 89 | 144 | 2.0 | 7.0 | 0.00 | 0.00 | 0.00 | 53 | 1012.3 |
| 20260902004535 | 90 | 142 | 3.0 | 9.0 | 0.00 | 0.00 | 0.00 | 51 | 1012.3 |
| 20260902003035 | 91 | 122 | 3.0 | 8.0 | 0.00 | 0.00 | 0.00 | 49 | 1012.4 |
| 20260902001533 | 91 | 136 | 5.0 | 9.0 | 0.00 | 0.00 | 0.00 | 49 | 1012.4 |
| 20260902000043 | 91 | 85 | 3.0 | 10.0 | 0.00 | 0.00 | 0.00 | 49 | 1012.4 |
| 20260901234532 | 92 | 171 | 4.0 | 9.0 | 0.00 | 0.00 | 0.00 | 48 | 1012.4 |
| 20260901233030 | 93 | 131 | 6.0 | 12.0 | 0.00 | 0.00 | 0.00 | 46 | 1012.3 |
| 20260901231536 | 94 | 98 | 2.0 | 9.0 | 0.00 | 0.00 | 0.00 | 42 | 1012.2 |
| 20260901230034 | 95 | 68 | 2.0 | 16.0 | 0.00 | 0.00 | 0.00 | 41 | 1012.2 |
| 20260901224539 | 96 | 206 | 4.0 | 11.0 | 0.00 | 0.00 | 0.00 | 39 | 1012.1 |
| 20260901223044 | 96 | 160 | 2.0 | 9.0 | 0.00 | 0.00 | 0.00 | 40 | 1012.1 |
| 20260901221525 | 95 | 167 | 1.0 | 7.0 | 0.00 | 0.00 | 0.00 | 41 | 1012.3 |
| 20260901220028 | 94 | 167 | 3.0 | 7.0 | 0.00 | 0.00 | 0.00 | 42 | 1012.4 |
| 20260901214522 | 94 | 94 | 4.0 | 8.0 | 0.00 | 0.00 | 0.00 | 42 | 1012.5 |
| 20260901213029 | 95 | 150 | 4.0 | 8.0 | 0.00 | 0.00 | 0.00 | 43 | 1012.4 |
| 20260901211525 | 94 | 130 | 2.0 | 7.0 | 0.00 | 0.00 | 0.00 | 44 | 1012.6 |
| 20260901210030 | 93 | 103 | 3.0 | 8.0 | 0.00 | 0.00 | 0.00 | 44 | 1012.9 |
| 20260901204522 | 93 | 59 | 4.0 | 10.0 | 0.00 | 0.00 | 0.00 | 45 | 1013.1 |
| 20260901203013 | 94 | 341 | 1.0 | 7.0 | 0.00 | 0.00 | 0.00 | 45 | 1013.3 |
| 20260901201510 | 94 | 22 | 1.0 | 11.0 | 0.00 | 0.00 | 0.00 | 46 | 1013.6 |
| 20260901200029 | 92 | 75 | 3.0 | 8.0 | 0.00 | 0.00 | 0.00 | 47 | 1013.8 |
| 20260901194506 | 94 | 314 | 1.0 | 7.0 | 0.00 | 0.00 | 0.00 | 46 | 1014.0 |
| 20260901193005 | 94 | 146 | 5.0 | 9.0 | 0.00 | 0.00 | 0.00 | 46 | 1014.1 |
| 20260901191503 | 94 | 278 | 3.0 | 9.0 | 0.00 | 0.00 | 0.00 | 46 | 1014.2 |
| 20260901190001 | 92 | 234 | 4.0 | 11.0 | 0.00 | 0.00 | 0.00 | 47 | 1014.4 |
| 20260901184605 | 92 | 167 | 0.0 | 9.0 | 0.00 | 0.00 | 0.00 | 48 | 1014.7 |
| 20260901183055 | 93 | 120 | 7.0 | 14.0 | 0.00 | 0.00 | 0.00 | 45 | 1015.0 |
| 20260901181553 | 93 | 139 | 6.0 | 11.0 | 0.00 | 0.00 | 0.00 | 46 | 1015.2 |
| 20260901180051 | 93 | 138 | 3.0 | 9.0 | 0.00 | 0.00 | 0.00 | 49 | 1015.3 |
| 20260901174601 | 92 | 84 | 1.0 | 13.0 | 0.00 | 0.00 | 0.00 | 50 | 1015.7 |
| 20260901173051 | 91 | 98 | 6.0 | 13.0 | 0.00 | 0.00 | 0.00 | 49 | 1015.9 |
| 20260901171551 | 90 | 79 | 4.0 | 10.0 | 0.00 | 0.00 | 0.00 | 53 | 1016.1 |
| 20260901170133 | 90 | 219 | 3.0 | 10.0 | 0.00 | 0.00 | 0.00 | 53 | 1016.2 |
| 20260901164545 | 90 | 176 | 3.0 | 12.0 | 0.00 | 0.00 | 0.00 | 53 | 1016.4 |
| 20260901163044 | 90 | 217 | 4.0 | 10.0 | 0.00 | 0.00 | 0.00 | 53 | 1016.4 |
| 20260901161550 | 89 | 187 | 4.0 | 8.0 | 0.00 | 0.00 | 0.00 | 54 | 1016.6 |
| 20260901160039 | 88 | 85 | 4.0 | 10.0 | 0.00 | 0.00 | 0.00 | 56 | 1016.6 |
| 20260901154539 | 87 | 132 | 2.0 | 5.0 | 0.00 | 0.00 | 0.00 | 58 | 1016.5 |
| 20260901153044 | 86 | 112 | 1.0 | 5.0 | 0.00 | 0.00 | 0.00 | 62 | 1016.4 |
| 20260901151533 | 85 | 259 | 0.0 | 3.0 | 0.00 | 0.00 | 0.00 | 65 | 1016.4 |
| 20260901150031 | 84 | 157 | 1.0 | 3.0 | 0.00 | 0.00 | 0.00 | 68 | 1016.6 |
| 20260901144528 | 82 | 294 | 1.0 | 5.0 | 0.00 | 0.00 | 0.00 | 72 | 1016.5 |
| 20260901143027 | 82 | 240 | 0.0 | 5.0 | 0.00 | 0.00 | 0.00 | 75 | 1016.6 |
| 20260901141535 | 80 | 275 | 1.0 | 5.0 | 0.00 | 0.00 | 0.00 | 78 | 1016.7 |
| 20260901140029 | 80 | 283 | 3.0 | 6.0 | 0.00 | 0.00 | 0.00 | 80 | 1016.8 |
| 20260901134524 | 79 | 249 | 2.0 | 7.0 | 0.00 | 0.00 | 0.00 | 83 | 1016.6 |
| 20260901133022 | 78 | 237 | 3.0 | 7.0 | 0.00 | 0.00 | 0.00 | 84 | 1016.4 |
| 20260901131531 | 78 | 229 | 2.0 | 7.0 | 0.00 | 0.00 | 0.00 | 86 | 1016.2 |
| 20260901130019 | 76 | 233 | 1.0 | 5.0 | 0.00 | 0.00 | 0.00 | 88 | 1016.2 |
| 20260901124518 | 76 | 234 | 1.0 | 4.0 | 0.00 | 0.00 | 0.00 | 89 | 1016.0 |
| 20260901123015 | 75 | 248 | 1.0 | 4.0 | 0.00 | 0.00 | 0.00 | 89 | 1015.8 |
| 20260901121519 | 75 | 271 | 1.0 | 4.0 | 0.00 | 0.00 | 0.00 | 89 | 1015.8 |
| 20260901120013 | 75 | 251 | 1.0 | 4.0 | 0.00 | 0.00 | 0.00 | 89 | 1015.9 |
| 20260901114512 | 75 | 261 | 2.0 | 5.0 | 0.00 | 0.00 | 0.00 | 89 | 1015.8 |
| 20260901113012 | 75 | 268 | 3.0 | 6.0 | 0.00 | 0.00 | 0.00 | 89 | 1015.6 |
| 20260901111611 | 75 | 228 | 1.0 | 6.0 | 0.00 | 0.00 | 0.00 | 89 | 1015.5 |
| 20260901110017 | 75 | 245 | 3.0 | 7.0 | 0.00 | 0.00 | 0.00 | 89 | 1015.5 |
| 20260901104520 | 75 | 211 | 2.0 | 7.0 | 0.00 | 0.00 | 0.00 | 88 | 1015.5 |
| 20260901103009 | 75 | 235 | 4.0 | 8.0 | 0.00 | 0.00 | 0.00 | 88 | 1015.5 |
| 20260901101507 | 75 | 259 | 1.0 | 4.0 | 0.00 | 0.00 | 0.00 | 87 | 1015.6 |
| 20260901100006 | 75 | 210 | 2.0 | 4.0 | 0.00 | 0.00 | 0.00 | 86 | 1015.6 |
| 20260901094506 | 75 | 203 | 1.0 | 4.0 | 0.00 | 0.00 | 0.00 | 86 | 1015.8 |
| 20260901093005 | 75 | 154 | 2.0 | 4.0 | 0.00 | 0.00 | 0.00 | 85 | 1015.9 |